User: anonymous   Login
Location: Unspecified
(0.0000°N, 0.0000°E)
Time: 22:41:03
(UTC+02:00)
Language:

Timation 2 Rocket - Orbit

View from above orbital plane
View from above orbital plane
View from above satellite
View from above satellite

Ground track
Ground track

The orbit data is extracted from the following two-line orbital elements,

1  4159U 69082AB  16211.93115169 -.00000022 +00000-0 +28844-4 0  9995
2  4159 069.9628 099.8958 0113550 131.6247 229.4641 13.72351415343424
Epoch (UTC): 29 July 2016 22:20:51
Eccentricity: 0.0113550
inclination: 69.9628°
perigee height: 907 km
apogee height: 1075 km
right ascension of ascending node: 99.8958°
argument of perigee: 131.6247°
revolutions per day: 13.72351415
mean anomaly at epoch: 229.4641°
orbit number at epoch: 34342

The dashed part of the orbit path shows where the satellite is in the earth's shadow,  

DLR